User: anonymous   Login
Location: Rumah Long Bangan
(2.8362°N, 113.7519°E)
Time: 03:32:47
(UTC+00:00)
Language:

SL-14 R/B - Orbit

View from above orbital plane
View from above orbital plane
View from above satellite
View from above satellite

Ground track
Ground track

The orbit data is extracted from the following two-line orbital elements,

1 33505U 09003B   22026.44855590  .00000032  00000-0  23006-7 0  9993
2 33505  82.3876   7.7274 0025753 151.6008 208.6631 15.10200783714940
Epoch (UTC): 26 January 2022 10:45:55
Eccentricity: 0.0025753
inclination: 82.3876°
perigee height: 518 km
apogee height: 553 km
right ascension of ascending node: 7.7274°
argument of perigee: 151.6008°
revolutions per day: 15.10200783
mean anomaly at epoch: 208.6631°
orbit number at epoch: 71494

The dashed part of the orbit path shows where the satellite is in the earth's shadow,  

DLR